EZY25PV EGAC-EGGW

Flight info

Callsign EZY25PV
Flight time 0h 47m
Altitude 33000
Route DUFFY L10 RINGA Q39 ETIGA DCT INKOB Q39 NOMSU UQ4 LISTO
Aircraft A319/M-SDE3FGHIRWY/LB1

Departure

Time 2026-04-20 21:16
Airport George Best Belfast City Airport (EGAC)

Arrival

Time 2026-04-20 22:03
Airport London Luton Airport (EGGW)
Time Latitude Longitude Altitude Speed Heading
2026-04-20 20:35 54.61498 -5.87144 22 ft 0 kts 156°
2026-04-20 21:09 54.61516 -5.87157 24 ft 4 kts 156°
2026-04-20 21:09 54.61540 -5.87174 23 ft 4 kts 169°
2026-04-20 21:10 54.61566 -5.87174 21 ft 4 kts 200°
2026-04-20 21:10 54.61582 -5.87160 23 ft 1 kts 216°
2026-04-20 21:10 54.61584 -5.87158 23 ft 0 kts 216°
2026-04-20 21:12 54.61581 -5.87162 24 ft 2 kts 216°
2026-04-20 21:12 54.61556 -5.87193 25 ft 7 kts 216°
2026-04-20 21:13 54.61506 -5.87254 21 ft 11 kts 215°
2026-04-20 21:13 54.61433 -5.87342 21 ft 15 kts 218°
2026-04-20 21:13 54.61357 -5.87477 21 ft 17 kts 215°
2026-04-20 21:13 54.61252 -5.87602 17 ft 18 kts 214°
2026-04-20 21:14 54.61144 -5.87731 17 ft 19 kts 215°
2026-04-20 21:14 54.61089 -5.87810 19 ft 8 kts 237°
2026-04-20 21:14 54.61100 -5.87940 18 ft 14 kts 300°
2026-04-20 21:14 54.61163 -5.88020 18 ft 12 kts
2026-04-20 21:15 54.61184 -5.87999 20 ft 0 kts 35°
2026-04-20 21:15 54.61260 -5.87908 16 ft 50 kts 35°
2026-04-20 21:15 54.61788 -5.87279 21 ft 130 kts 35°
2026-04-20 21:15 54.62594 -5.86310 588 ft 139 kts 35°
2026-04-20 21:16 54.63387 -5.85370 1332 ft 146 kts 37°
2026-04-20 21:16 54.64252 -5.84225 1828 ft 167 kts 50°
2026-04-20 21:16 54.64671 -5.82261 2260 ft 189 kts 89°
2026-04-20 21:16 54.64240 -5.79971 2719 ft 219 kts 123°
2026-04-20 21:17 54.63010 -5.78190 3441 ft 244 kts 149°
2026-04-20 21:17 54.61488 -5.76802 4544 ft 250 kts 150°
2026-04-20 21:17 54.59931 -5.75384 5694 ft 255 kts 150°
2026-04-20 21:17 54.58351 -5.73948 6834 ft 259 kts 151°
2026-04-20 21:18 54.56741 -5.72481 7897 ft 264 kts 151°
2026-04-20 21:18 54.55105 -5.70986 8980 ft 268 kts 152°
2026-04-20 21:18 54.53437 -5.69462 10054 ft 274 kts 152°
2026-04-20 21:18 54.51725 -5.67900 10855 ft 289 kts 152°
2026-04-20 21:19 54.49879 -5.66217 11420 ft 308 kts 152°
2026-04-20 21:19 54.47955 -5.64469 12295 ft 316 kts 152°
2026-04-20 21:19 54.46017 -5.62710 13231 ft 322 kts 152°
2026-04-20 21:20 54.41992 -5.59049 14994 ft 333 kts 151°
2026-04-20 21:20 54.40087 -5.56747 15804 ft 338 kts 139°
2026-04-20 21:20 54.38484 -5.53752 16618 ft 344 kts 126°
2026-04-20 21:20 54.37114 -5.50346 17432 ft 349 kts 125°
2026-04-20 21:21 54.35721 -5.46885 18194 ft 356 kts 125°
2026-04-20 21:21 54.34293 -5.43364 18916 ft 362 kts 126°
2026-04-20 21:21 54.32840 -5.39800 19600 ft 368 kts 126°
2026-04-20 21:21 54.31361 -5.36178 20274 ft 373 kts 126°
2026-04-20 21:22 54.29862 -5.32516 20963 ft 379 kts 126°
2026-04-20 21:22 54.28343 -5.28808 21711 ft 382 kts 126°
2026-04-20 21:22 54.26772 -5.25109 22450 ft 386 kts 128°
2026-04-20 21:22 54.25102 -5.21479 23153 ft 391 kts 130°
2026-04-20 21:23 54.23359 -5.17877 23852 ft 396 kts 131°
2026-04-20 21:23 54.21570 -5.14260 24419 ft 401 kts 131°
2026-04-20 21:23 54.19753 -5.10599 24971 ft 406 kts 131°
2026-04-20 21:23 54.17921 -5.06884 25508 ft 411 kts 131°
2026-04-20 21:24 54.16073 -5.03108 26030 ft 416 kts 131°
2026-04-20 21:24 54.14211 -4.99280 26517 ft 421 kts 131°
2026-04-20 21:24 54.12330 -4.95393 26947 ft 429 kts 131°
2026-04-20 21:24 54.10421 -4.91447 27393 ft 435 kts 131°
2026-04-20 21:25 54.08483 -4.87447 27865 ft 440 kts 131°
2026-04-20 21:25 54.06520 -4.83404 28336 ft 445 kts 131°
2026-04-20 21:25 54.04537 -4.79331 28791 ft 450 kts 131°
2026-04-20 21:25 54.02563 -4.75160 29244 ft 455 kts 129°
2026-04-20 21:26 54.00627 -4.70868 29770 ft 458 kts 128°
2026-04-20 21:26 53.98719 -4.66508 30301 ft 461 kts 128°
2026-04-20 21:26 53.96807 -4.62101 30693 ft 465 kts 128°
2026-04-20 21:26 53.94872 -4.57667 31090 ft 468 kts 128°
2026-04-20 21:27 53.92919 -4.53241 31494 ft 470 kts 128°
2026-04-20 21:27 53.90942 -4.48816 31870 ft 472 kts 128°
2026-04-20 21:27 53.88941 -4.44384 32280 ft 474 kts 129°
2026-04-20 21:27 53.86934 -4.39956 32771 ft 473 kts 128°
2026-04-20 21:28 53.84977 -4.35475 33205 ft 473 kts 127°
2026-04-20 21:28 53.83093 -4.30939 33320 ft 469 kts 125°
2026-04-20 21:28 53.81294 -4.26451 33337 ft 452 kts 124°
2026-04-20 21:28 53.79571 -4.22100 33336 ft 440 kts 124°
2026-04-20 21:29 53.77871 -4.17831 33337 ft 436 kts 125°
2026-04-20 21:29 53.74453 -4.09429 33333 ft 432 kts 126°
2026-04-20 21:30 53.71030 -4.01187 33336 ft 431 kts 126°
2026-04-20 21:30 53.67579 -3.92901 33331 ft 431 kts 126°
2026-04-20 21:31 53.64114 -3.84570 33322 ft 436 kts 126°
2026-04-20 21:31 53.60628 -3.76207 33319 ft 436 kts 126°
2026-04-20 21:32 53.57131 -3.67849 33325 ft 436 kts 127°
2026-04-20 21:32 53.53627 -3.59513 33334 ft 436 kts 126°
2026-04-20 21:33 53.50111 -3.51198 33343 ft 435 kts 127°
2026-04-20 21:33 53.46733 -3.42782 33340 ft 435 kts 118°
2026-04-20 21:34 53.44314 -3.33462 33336 ft 435 kts 113°
2026-04-20 21:34 53.41941 -3.24136 33344 ft 435 kts 114°
2026-04-20 21:35 53.39548 -3.14833 33344 ft 435 kts 114°
2026-04-20 21:35 53.37279 -3.05445 33353 ft 434 kts 110°
2026-04-20 21:36 53.35211 -2.95949 33365 ft 433 kts 110°
2026-04-20 21:36 53.33154 -2.86475 33361 ft 432 kts 110°
2026-04-20 21:37 53.31041 -2.77067 33346 ft 432 kts 111°
2026-04-20 21:37 53.28566 -2.67926 33343 ft 431 kts 117°
2026-04-20 21:38 53.25911 -2.58937 33345 ft 431 kts 116°
2026-04-20 21:38 53.23274 -2.49949 33361 ft 431 kts 116°
2026-04-20 21:39 53.20644 -2.41038 33333 ft 431 kts 116°
2026-04-20 21:39 53.17948 -2.31994 33360 ft 447 kts 117°
2026-04-20 21:39 53.16535 -2.27280 33351 ft 460 kts 117°
2026-04-20 21:40 53.14937 -2.22634 33356 ft 465 kts 126°
2026-04-20 21:40 53.12865 -2.18512 33352 ft 465 kts 137°
2026-04-20 21:40 53.10385 -2.15069 33356 ft 463 kts 146°
2026-04-20 21:41 53.05176 -2.08733 33354 ft 464 kts 146°
2026-04-20 21:41 52.99961 -2.02403 33354 ft 464 kts 146°
2026-04-20 21:42 52.94739 -1.96081 33346 ft 466 kts 146°
2026-04-20 21:42 52.90384 -1.90827 33338 ft 466 kts 146°
2026-04-20 21:43 52.85140 -1.84514 33335 ft 466 kts 146°
2026-04-20 21:43 52.82537 -1.81383 32942 ft 460 kts 146°
2026-04-20 21:43 52.79952 -1.78285 32238 ft 460 kts 146°
2026-04-20 21:43 52.77365 -1.75193 31632 ft 457 kts 146°
2026-04-20 21:44 52.74779 -1.72160 31049 ft 453 kts 150°
2026-04-20 21:44 52.72034 -1.69672 30392 ft 449 kts 156°
2026-04-20 21:44 52.69266 -1.67287 29715 ft 447 kts 156°
2026-04-20 21:44 52.66521 -1.64925 29122 ft 443 kts 156°
2026-04-20 21:45 52.63806 -1.62593 28563 ft 438 kts 155°
2026-04-20 21:45 52.61116 -1.60285 28023 ft 433 kts 155°
2026-04-20 21:45 52.58459 -1.58007 27505 ft 429 kts 155°
2026-04-20 21:45 52.55829 -1.55758 27005 ft 424 kts 155°
2026-04-20 21:46 52.53221 -1.53534 26514 ft 420 kts 155°
2026-04-20 21:46 52.50641 -1.51337 26044 ft 416 kts 155°
2026-04-20 21:46 52.48074 -1.49159 25582 ft 415 kts 156°
2026-04-20 21:46 52.45520 -1.46990 25164 ft 411 kts 155°
2026-04-20 21:47 52.42998 -1.44844 24769 ft 406 kts 154°
2026-04-20 21:47 52.40504 -1.42726 24346 ft 402 kts 154°
2026-04-20 21:47 52.38030 -1.40626 23917 ft 399 kts 154°
2026-04-20 21:47 52.35578 -1.38547 23416 ft 395 kts 154°
2026-04-20 21:48 52.33150 -1.36493 22944 ft 391 kts 154°
2026-04-20 21:48 52.30747 -1.34463 22477 ft 387 kts 154°
2026-04-20 21:48 52.28373 -1.32427 22016 ft 384 kts 153°
2026-04-20 21:48 52.26053 -1.30310 21465 ft 383 kts 152°
2026-04-20 21:49 52.23748 -1.28117 20899 ft 383 kts 151°
2026-04-20 21:49 52.21462 -1.25906 20459 ft 379 kts 151°
2026-04-20 21:49 52.19210 -1.23730 19996 ft 374 kts 151°
2026-04-20 21:49 52.16984 -1.21598 19304 ft 368 kts 151°
2026-04-20 21:50 52.14791 -1.19516 18657 ft 362 kts 150°
2026-04-20 21:50 52.12632 -1.17484 17925 ft 356 kts 150°
2026-04-20 21:50 52.10497 -1.15489 17190 ft 351 kts 150°
2026-04-20 21:50 52.08390 -1.13521 16468 ft 347 kts 150°
2026-04-20 21:51 52.06307 -1.11575 15763 ft 343 kts 150°
2026-04-20 21:51 52.04243 -1.09652 15071 ft 340 kts 150°
2026-04-20 21:51 52.02203 -1.07755 14378 ft 337 kts 150°
2026-04-20 21:51 52.00318 -1.05554 13676 ft 332 kts 135°
2026-04-20 21:52 51.98912 -1.02641 12967 ft 325 kts 117°
2026-04-20 21:52 51.97955 -0.99349 12252 ft 321 kts 112°
2026-04-20 21:52 51.97045 -0.96072 11570 ft 316 kts 112°
2026-04-20 21:52 51.96144 -0.92850 10898 ft 312 kts 112°
2026-04-20 21:53 51.95251 -0.89673 10236 ft 307 kts 112°
2026-04-20 21:53 51.94373 -0.86563 9683 ft 297 kts 112°
2026-04-20 21:53 51.93529 -0.83586 9175 ft 286 kts 112°
2026-04-20 21:53 51.92707 -0.80687 8520 ft 281 kts 112°
2026-04-20 21:54 51.91897 -0.77822 7847 ft 278 kts 112°
2026-04-20 21:54 51.91096 -0.74996 7192 ft 274 kts 111°
2026-04-20 21:54 51.90305 -0.72204 6516 ft 271 kts 111°
2026-04-20 21:54 51.89334 -0.69679 6063 ft 263 kts 131°
2026-04-20 21:55 51.88037 -0.67753 5876 ft 244 kts 135°
2026-04-20 21:55 51.86758 -0.65973 5331 ft 242 kts 136°
2026-04-20 21:55 51.85476 -0.64209 4751 ft 241 kts 136°
2026-04-20 21:55 51.84164 -0.62531 4156 ft 241 kts 148°
2026-04-20 21:56 51.82664 -0.61463 3906 ft 232 kts 155°
2026-04-20 21:56 51.81166 -0.60606 3733 ft 225 kts 165°
2026-04-20 21:56 51.79647 -0.60821 3630 ft 221 kts 202°
2026-04-20 21:56 51.78486 -0.62395 3572 ft 221 kts 240°
2026-04-20 21:57 51.78091 -0.64734 3518 ft 217 kts 277°
2026-04-20 21:57 51.78590 -0.66938 3466 ft 208 kts 314°
2026-04-20 21:57 51.79755 -0.68170 3410 ft 199 kts 351°
2026-04-20 21:57 51.81090 -0.68051 3347 ft 192 kts 25°
2026-04-20 21:58 51.82119 -0.66746 3297 ft 190 kts 57°
2026-04-20 21:58 51.82598 -0.64764 3250 ft 192 kts 74°
2026-04-20 21:58 51.82957 -0.62687 3180 ft 192 kts 74°
2026-04-20 21:58 51.83320 -0.60610 3082 ft 191 kts 73°
2026-04-20 21:59 51.83671 -0.58610 3030 ft 182 kts 73°
2026-04-20 21:59 51.84010 -0.56678 2908 ft 176 kts 73°
2026-04-20 21:59 51.84336 -0.54812 2708 ft 170 kts 73°
2026-04-20 21:59 51.84652 -0.53007 2485 ft 165 kts 73°
2026-04-20 22:00 51.84961 -0.51239 2255 ft 162 kts 73°
2026-04-20 22:00 51.85259 -0.49529 2040 ft 153 kts 73°
2026-04-20 22:00 51.85536 -0.47937 1828 ft 141 kts 73°
2026-04-20 22:00 51.85792 -0.46472 1640 ft 131 kts 73°
2026-04-20 22:01 51.86033 -0.45082 1422 ft 127 kts 73°
2026-04-20 22:01 51.86272 -0.43722 1230 ft 125 kts 73°
2026-04-20 22:01 51.86505 -0.42371 1047 ft 124 kts 73°
2026-04-20 22:01 51.86739 -0.41032 875 ft 124 kts 72°
2026-04-20 22:02 51.86966 -0.39696 702 ft 123 kts 73°
2026-04-20 22:02 51.87200 -0.38360 560 ft 124 kts 73°
2026-04-20 22:02 51.87417 -0.37121 523 ft 103 kts 75°
2026-04-20 22:02 51.87563 -0.36268 520 ft 54 kts 74°
2026-04-20 22:03 51.87623 -0.35941 516 ft 17 kts 59°
2026-04-20 22:03 51.87712 -0.35939 516 ft 11 kts 343°
2026-04-20 22:03 51.87782 -0.36012 517 ft 13 kts 297°
2026-04-20 22:03 51.87773 -0.36143 518 ft 12 kts 253°
2026-04-20 22:04 51.87747 -0.36291 518 ft 16 kts 255°
2026-04-20 22:04 51.87714 -0.36475 520 ft 17 kts 254°
2026-04-20 22:04 51.87687 -0.36635 521 ft 8 kts 255°
2026-04-20 22:04 51.87672 -0.36727 523 ft 8 kts 255°
2026-04-20 22:05 51.87654 -0.36826 525 ft 10 kts 253°
2026-04-20 22:05 51.87661 -0.36936 525 ft 13 kts 317°
2026-04-20 22:05 51.87758 -0.36995 518 ft 15 kts 342°
2026-04-20 22:05 51.87875 -0.37057 510 ft 19 kts 342°
2026-04-20 22:06 51.88002 -0.37124 509 ft 19 kts 342°
2026-04-20 22:06 51.88124 -0.37187 512 ft 17 kts 342°
2026-04-20 22:06 51.88217 -0.37240 517 ft 13 kts 332°
2026-04-20 22:06 51.88221 -0.37370 517 ft 13 kts 251°
2026-04-20 22:07 51.88207 -0.37522 516 ft 15 kts 282°
2026-04-20 22:07 51.88183 -0.37657 521 ft 11 kts 239°
2026-04-20 22:07 51.88147 -0.37751 523 ft 12 kts 236°
2026-04-20 22:07 51.88081 -0.37854 523 ft 14 kts 218°
2026-04-20 22:08 51.88004 -0.37953 523 ft 13 kts 218°
2026-04-20 22:08 51.87925 -0.38014 523 ft 12 kts 188°
2026-04-20 22:08 51.87879 -0.37981 523 ft 6 kts 84°
2026-04-20 22:08 51.87887 -0.37930 523 ft 3 kts 72°
2026-04-20 22:09 51.87889 -0.37921 523 ft 0 kts 72°